{"data":{"norad_id":53560,"epoch":"2026-09-20T08:37:20.482176Z","epoch_age_seconds":90625,"freshness":"FRESH","line1":"1 53560U 22101AK  26263.35926484 -.00000134  00000+0  74365-5 0  9993","line2":"2 53560  53.1583 250.4503 0001279  78.0347 282.0798 15.31699094225960","mean_motion":15.31699094,"eccentricity":0.0001279,"inclination_deg":53.1583,"raan_deg":250.4503,"arg_perigee_deg":78.0347,"mean_anomaly_deg":282.0798,"bstar":7.4365e-6,"rev_number":22596,"period_min":94.013243569889,"perigee_km":469.86672425272,"apogee_km":471.61866767895,"semimajor_km":6848.8796959658,"source":"CELESTRAK","updated_at":"2026-09-21T09:00:32.927439Z"}}